Year,Month,Day,Hour,Minute,Value (Times are PST for temperature in C)
2014,02,23,00,00,0.40
2014,02,23,00,01,0.40
2014,02,23,00,02,0.40
2014,02,23,00,03,0.40
2014,02,23,00,04,0.40
2014,02,23,00,05,0.40
2014,02,23,00,06,0.40
2014,02,23,00,07,0.40
2014,02,23,00,08,0.40
2014,02,23,00,09,0.40
2014,02,23,00,10,0.40
2014,02,23,00,11,0.30
2014,02,23,00,12,0.30
2014,02,23,00,13,0.30
2014,02,23,00,14,0.30
2014,02,23,00,15,0.30
2014,02,23,00,16,0.30
2014,02,23,00,17,0.30
2014,02,23,00,18,0.30
2014,02,23,00,19,0.30
2014,02,23,00,20,0.30
2014,02,23,00,21,0.30
2014,02,23,00,22,0.30
2014,02,23,00,23,0.30
2014,02,23,00,24,0.30
2014,02,23,00,25,0.40
2014,02,23,00,26,0.40
2014,02,23,00,27,0.40
2014,02,23,00,28,0.40
2014,02,23,00,29,0.40
2014,02,23,00,30,0.40
2014,02,23,00,31,0.40
2014,02,23,00,32,0.30
2014,02,23,00,33,0.30
2014,02,23,00,34,0.30
2014,02,23,00,35,0.30
2014,02,23,00,36,0.30
2014,02,23,00,37,0.30
2014,02,23,00,38,0.30
2014,02,23,00,39,0.30
2014,02,23,00,40,0.40
2014,02,23,00,41,0.40
2014,02,23,00,42,0.40
2014,02,23,00,43,0.40
2014,02,23,00,44,0.40
2014,02,23,00,45,0.40
2014,02,23,00,46,0.40
2014,02,23,00,47,0.40
2014,02,23,00,48,0.40
2014,02,23,00,49,0.30
2014,02,23,00,50,0.20
2014,02,23,00,51,0.20
2014,02,23,00,52,0.20
2014,02,23,00,53,0.20
2014,02,23,00,54,0.10
2014,02,23,00,55,0.10
2014,02,23,00,56,0.10
2014,02,23,00,57,0.20
2014,02,23,00,58,0.20
2014,02,23,00,59,0.20
2014,02,23,01,00,0.30
2014,02,23,01,01,0.30
2014,02,23,01,02,0.30
2014,02,23,01,03,0.30
2014,02,23,01,04,0.30
2014,02,23,01,05,0.30
2014,02,23,01,06,0.40
2014,02,23,01,07,0.40
2014,02,23,01,08,0.40
2014,02,23,01,09,0.40
2014,02,23,01,10,0.40
2014,02,23,01,11,0.40
2014,02,23,01,12,0.40
2014,02,23,01,13,0.50
2014,02,23,01,14,0.50
2014,02,23,01,15,0.50
2014,02,23,01,16,0.50
2014,02,23,01,17,0.60
2014,02,23,01,18,0.60
2014,02,23,01,19,0.60
2014,02,23,01,20,0.60
2014,02,23,01,21,0.60
2014,02,23,01,22,0.60
2014,02,23,01,23,0.60
2014,02,23,01,24,0.60
2014,02,23,01,25,0.60
2014,02,23,01,26,0.60
2014,02,23,01,27,0.60
2014,02,23,01,28,0.60
2014,02,23,01,29,0.60
2014,02,23,01,30,0.60
2014,02,23,01,31,0.60
2014,02,23,01,32,0.60
2014,02,23,01,33,0.60
2014,02,23,01,34,0.60
2014,02,23,01,35,0.70
2014,02,23,01,36,0.70
2014,02,23,01,37,0.70
2014,02,23,01,38,0.70
2014,02,23,01,39,0.70
2014,02,23,01,40,0.70
2014,02,23,01,41,0.70
2014,02,23,01,42,0.70
2014,02,23,01,43,0.70
2014,02,23,01,44,0.70
2014,02,23,01,45,0.70
2014,02,23,01,46,0.70
2014,02,23,01,47,0.70
2014,02,23,01,48,0.70
2014,02,23,01,49,0.70
2014,02,23,01,50,0.80
2014,02,23,01,51,0.80
2014,02,23,01,52,0.80
2014,02,23,01,53,0.80
2014,02,23,01,54,0.80
2014,02,23,01,55,0.80
2014,02,23,01,56,0.80
2014,02,23,01,57,0.80
2014,02,23,01,58,0.70
2014,02,23,01,59,0.70
2014,02,23,02,00,0.80
2014,02,23,02,01,0.70
2014,02,23,02,02,0.70
2014,02,23,02,03,0.70
2014,02,23,02,04,0.70
2014,02,23,02,05,0.70
2014,02,23,02,06,0.70
2014,02,23,02,07,0.70
2014,02,23,02,08,0.70
2014,02,23,02,09,0.70
2014,02,23,02,10,0.70
2014,02,23,02,11,0.70
2014,02,23,02,12,0.70
2014,02,23,02,13,0.70
2014,02,23,02,14,0.70
2014,02,23,02,15,0.70
2014,02,23,02,16,0.70
2014,02,23,02,17,0.70
2014,02,23,02,18,0.70
2014,02,23,02,19,0.70
2014,02,23,02,20,0.70
2014,02,23,02,21,0.70
2014,02,23,02,22,0.70
2014,02,23,02,23,0.70
2014,02,23,02,24,0.80
2014,02,23,02,25,0.80
2014,02,23,02,26,0.80
2014,02,23,02,27,0.80
2014,02,23,02,28,0.80
2014,02,23,02,29,0.80
2014,02,23,02,30,0.80
2014,02,23,02,31,0.80
2014,02,23,02,32,0.80
2014,02,23,02,33,0.80
2014,02,23,02,34,0.80
2014,02,23,02,35,0.80
2014,02,23,02,36,0.80
2014,02,23,02,37,0.80
2014,02,23,02,38,0.80
2014,02,23,02,39,0.80
2014,02,23,02,40,0.80
2014,02,23,02,41,0.80
2014,02,23,02,42,0.80
2014,02,23,02,43,0.80
2014,02,23,02,44,0.80
2014,02,23,02,45,0.80
2014,02,23,02,46,0.80
2014,02,23,02,47,0.80
2014,02,23,02,48,0.80
2014,02,23,02,49,0.80
2014,02,23,02,50,0.80
2014,02,23,02,51,0.80
2014,02,23,02,52,0.80
2014,02,23,02,53,0.80
2014,02,23,02,54,0.80
2014,02,23,02,55,0.80
2014,02,23,02,56,0.80
2014,02,23,02,57,0.80
2014,02,23,02,58,0.80
2014,02,23,02,59,0.80
2014,02,23,03,00,0.80
2014,02,23,03,01,0.80
2014,02,23,03,02,0.70
2014,02,23,03,03,0.70
2014,02,23,03,04,0.70
2014,02,23,03,05,0.70
2014,02,23,03,06,0.70
2014,02,23,03,07,0.70
2014,02,23,03,08,0.70
2014,02,23,03,09,0.70
2014,02,23,03,10,0.70
2014,02,23,03,11,0.70
2014,02,23,03,12,0.70
2014,02,23,03,13,0.70
2014,02,23,03,14,0.70
2014,02,23,03,15,0.70
2014,02,23,03,16,0.70
2014,02,23,03,17,0.70
2014,02,23,03,18,0.70
2014,02,23,03,19,0.70
2014,02,23,03,20,0.70
2014,02,23,03,21,0.70
2014,02,23,03,22,0.70
2014,02,23,03,23,0.70
2014,02,23,03,24,0.70
2014,02,23,03,25,0.70
2014,02,23,03,26,0.70
2014,02,23,03,27,0.70
2014,02,23,03,28,0.70
2014,02,23,03,29,0.70
2014,02,23,03,30,0.70
2014,02,23,03,31,0.70
2014,02,23,03,32,0.70
2014,02,23,03,33,0.60
2014,02,23,03,34,0.60
2014,02,23,03,35,0.60
2014,02,23,03,36,0.60
2014,02,23,03,37,0.60
2014,02,23,03,38,0.60
2014,02,23,03,39,0.50
2014,02,23,03,40,0.50
2014,02,23,03,41,0.50
2014,02,23,03,42,0.50
2014,02,23,03,43,0.50
2014,02,23,03,44,0.50
2014,02,23,03,45,0.50
2014,02,23,03,46,0.50
2014,02,23,03,47,0.50
2014,02,23,03,48,0.50
2014,02,23,03,49,0.50
2014,02,23,03,50,0.50
2014,02,23,03,51,0.50
2014,02,23,03,52,0.50
2014,02,23,03,53,0.50
2014,02,23,03,54,0.50
2014,02,23,03,55,0.50
2014,02,23,03,56,0.50
2014,02,23,03,57,0.50
2014,02,23,03,58,0.50
2014,02,23,03,59,0.50
2014,02,23,04,00,0.50
2014,02,23,04,01,0.50
2014,02,23,04,02,0.50
2014,02,23,04,03,0.50
2014,02,23,04,04,0.60
2014,02,23,04,05,0.60
2014,02,23,04,06,0.60
2014,02,23,04,07,0.60
2014,02,23,04,08,0.60
2014,02,23,04,09,0.60
2014,02,23,04,10,0.60
2014,02,23,04,11,0.60
2014,02,23,04,12,0.50
2014,02,23,04,13,0.50
2014,02,23,04,14,0.50
2014,02,23,04,15,0.50
2014,02,23,04,16,0.50
2014,02,23,04,17,0.50
2014,02,23,04,18,0.50
2014,02,23,04,19,0.50
2014,02,23,04,20,0.50
2014,02,23,04,21,0.50
2014,02,23,04,22,0.50
2014,02,23,04,23,0.50
2014,02,23,04,24,0.50
2014,02,23,04,25,0.50
2014,02,23,04,26,0.50
2014,02,23,04,27,0.50
2014,02,23,04,28,0.50
2014,02,23,04,29,0.50
2014,02,23,04,30,0.60
2014,02,23,04,31,0.60
2014,02,23,04,32,0.60
2014,02,23,04,33,0.60
2014,02,23,04,34,0.60
2014,02,23,04,35,0.60
2014,02,23,04,36,0.60
2014,02,23,04,37,0.60
2014,02,23,04,38,0.60
2014,02,23,04,39,0.60
2014,02,23,04,40,0.60
2014,02,23,04,41,0.50
2014,02,23,04,42,0.60
2014,02,23,04,43,0.50
2014,02,23,04,44,0.50
2014,02,23,04,45,0.50
2014,02,23,04,46,0.60
2014,02,23,04,47,0.60
2014,02,23,04,48,0.50
2014,02,23,04,49,0.50
2014,02,23,04,50,0.50
2014,02,23,04,51,0.50
2014,02,23,04,52,0.50
2014,02,23,04,53,0.50
2014,02,23,04,54,0.50
2014,02,23,04,55,0.50
2014,02,23,04,56,0.50
2014,02,23,04,57,0.50
2014,02,23,04,58,0.50
2014,02,23,04,59,0.50
2014,02,23,05,00,0.50
2014,02,23,05,01,0.50
2014,02,23,05,02,0.50
2014,02,23,05,03,0.50
2014,02,23,05,04,0.40
2014,02,23,05,05,0.40
2014,02,23,05,06,0.40
2014,02,23,05,07,0.40
2014,02,23,05,08,0.40
2014,02,23,05,09,0.40
2014,02,23,05,10,0.40
2014,02,23,05,11,0.40
2014,02,23,05,12,0.40
2014,02,23,05,13,0.40
2014,02,23,05,14,0.40
2014,02,23,05,15,0.40
2014,02,23,05,16,0.40
2014,02,23,05,17,0.40
2014,02,23,05,18,0.40
2014,02,23,05,19,0.40
2014,02,23,05,20,0.40
2014,02,23,05,21,0.40
2014,02,23,05,22,0.40
2014,02,23,05,23,0.40
2014,02,23,05,24,0.40
2014,02,23,05,25,0.40
2014,02,23,05,26,0.40
2014,02,23,05,27,0.40
2014,02,23,05,28,0.40
2014,02,23,05,29,0.40
2014,02,23,05,30,0.40
2014,02,23,05,31,0.40
2014,02,23,05,32,0.40
2014,02,23,05,33,0.40
2014,02,23,05,34,0.40
2014,02,23,05,35,0.40
2014,02,23,05,36,0.30
2014,02,23,05,37,0.30
2014,02,23,05,38,0.30
2014,02,23,05,39,0.30
2014,02,23,05,40,0.30
2014,02,23,05,41,0.30
2014,02,23,05,42,0.30
2014,02,23,05,43,0.30
2014,02,23,05,44,0.30
2014,02,23,05,45,0.30
2014,02,23,05,46,0.30
2014,02,23,05,47,0.30
2014,02,23,05,48,0.30
2014,02,23,05,49,0.30
2014,02,23,05,50,0.30
2014,02,23,05,51,0.30
2014,02,23,05,52,0.30
2014,02,23,05,53,0.30
2014,02,23,05,54,0.30
2014,02,23,05,55,0.30
2014,02,23,05,56,0.30
2014,02,23,05,57,0.30
2014,02,23,05,58,0.30
2014,02,23,05,59,0.30
2014,02,23,06,00,0.30
2014,02,23,06,01,0.30
2014,02,23,06,02,0.30
2014,02,23,06,03,0.30
2014,02,23,06,04,0.30
2014,02,23,06,05,0.30
2014,02,23,06,06,0.30
2014,02,23,06,07,0.30
2014,02,23,06,08,0.30
2014,02,23,06,09,0.20
2014,02,23,06,10,0.20
2014,02,23,06,11,0.20
2014,02,23,06,12,0.20
2014,02,23,06,13,0.20
2014,02,23,06,14,0.20
2014,02,23,06,15,0.20
2014,02,23,06,16,0.20
2014,02,23,06,17,0.20
2014,02,23,06,18,0.20
2014,02,23,06,19,0.20
2014,02,23,06,20,0.20
2014,02,23,06,21,0.20
2014,02,23,06,22,0.20
2014,02,23,06,23,0.20
2014,02,23,06,24,0.20
2014,02,23,06,25,0.20
2014,02,23,06,26,0.20
2014,02,23,06,27,0.20
2014,02,23,06,28,0.20
2014,02,23,06,29,0.20
2014,02,23,06,30,0.20
2014,02,23,06,31,0.20
2014,02,23,06,32,0.20
2014,02,23,06,33,0.20
2014,02,23,06,34,0.20
2014,02,23,06,35,0.20
2014,02,23,06,36,0.20
2014,02,23,06,37,0.20
2014,02,23,06,38,0.20
2014,02,23,06,39,0.20
2014,02,23,06,40,0.20
2014,02,23,06,41,0.20
2014,02,23,06,42,0.20
2014,02,23,06,43,0.20
2014,02,23,06,44,0.20
2014,02,23,06,45,0.20
2014,02,23,06,46,0.20
2014,02,23,06,47,0.20
2014,02,23,06,48,0.20
2014,02,23,06,49,0.20
2014,02,23,06,50,0.20
2014,02,23,06,51,0.20
2014,02,23,06,52,0.20
2014,02,23,06,53,0.20
2014,02,23,06,54,0.20
2014,02,23,06,55,0.20
2014,02,23,06,56,0.20
2014,02,23,06,57,0.20
2014,02,23,06,58,0.20
2014,02,23,06,59,0.20
2014,02,23,07,00,0.20
2014,02,23,07,01,0.20
2014,02,23,07,02,0.20
2014,02,23,07,03,0.20
2014,02,23,07,04,0.20
2014,02,23,07,05,0.20
2014,02,23,07,06,0.20
2014,02,23,07,07,0.20
2014,02,23,07,08,0.20
2014,02,23,07,09,0.20
2014,02,23,07,10,0.20
2014,02,23,07,11,0.20
2014,02,23,07,12,0.20
2014,02,23,07,13,0.20
2014,02,23,07,14,0.20
2014,02,23,07,15,0.20
2014,02,23,07,16,0.20
2014,02,23,07,17,0.20
2014,02,23,07,18,0.20
2014,02,23,07,19,0.20
2014,02,23,07,20,0.20
2014,02,23,07,21,0.20
2014,02,23,07,22,0.20
2014,02,23,07,23,0.20
2014,02,23,07,24,0.20
2014,02,23,07,25,0.20
2014,02,23,07,26,0.20
2014,02,23,07,27,0.20
2014,02,23,07,28,0.20
2014,02,23,07,29,0.20
2014,02,23,07,30,0.20
2014,02,23,07,31,0.20
2014,02,23,07,32,0.20
2014,02,23,07,33,0.20
2014,02,23,07,34,0.20
2014,02,23,07,35,0.20
2014,02,23,07,36,0.20
2014,02,23,07,37,0.10
2014,02,23,07,38,0.10
2014,02,23,07,39,0.10
2014,02,23,07,40,0.10
2014,02,23,07,41,0.10
2014,02,23,07,42,0.10
2014,02,23,07,43,0.10
2014,02,23,07,44,0.10
2014,02,23,07,45,0.10
2014,02,23,07,46,0.10
2014,02,23,07,47,0.10
2014,02,23,07,48,0.10
2014,02,23,07,49,0.10
2014,02,23,07,50,0.10
2014,02,23,07,51,0.10
2014,02,23,07,52,0.10
2014,02,23,07,53,0.10
2014,02,23,07,54,0.10
2014,02,23,07,55,0.10
2014,02,23,07,56,0.10
2014,02,23,07,57,0.10
2014,02,23,07,58,0.10
2014,02,23,07,59,0.10
2014,02,23,08,00,0.10
2014,02,23,08,01,0.10
2014,02,23,08,02,0.10
2014,02,23,08,03,0.10
2014,02,23,08,04,0.10
2014,02,23,08,05,0.10
2014,02,23,08,06,0.10
2014,02,23,08,07,0.10
2014,02,23,08,08,0.10
2014,02,23,08,09,0.10
2014,02,23,08,10,0.10
2014,02,23,08,11,0.10
2014,02,23,08,12,0.10
2014,02,23,08,13,0.10
2014,02,23,08,14,0.10
2014,02,23,08,15,0.10
2014,02,23,08,16,0.10
2014,02,23,08,17,0.10
2014,02,23,08,18,0.10
2014,02,23,08,19,0.10
2014,02,23,08,20,0.10
2014,02,23,08,21,0.10
2014,02,23,08,22,0.10
2014,02,23,08,23,0.10
2014,02,23,08,24,0.10
2014,02,23,08,25,0.10
2014,02,23,08,26,0.10
2014,02,23,08,27,0.10
2014,02,23,08,28,0.10
2014,02,23,08,29,0.10
2014,02,23,08,30,0.10
2014,02,23,08,31,0.10
2014,02,23,08,32,0.10
2014,02,23,08,33,0.10
2014,02,23,08,34,0.10
2014,02,23,08,35,0.10
2014,02,23,08,36,0.10
2014,02,23,08,37,0.10
2014,02,23,08,38,0.10
2014,02,23,08,39,0.10
2014,02,23,08,40,0.10
2014,02,23,08,41,0.10
2014,02,23,08,42,0.10
2014,02,23,08,43,0.10
2014,02,23,08,44,0.10
2014,02,23,08,45,0.10
2014,02,23,08,46,0.10
2014,02,23,08,47,0.20
2014,02,23,08,48,0.20
2014,02,23,08,49,0.20
2014,02,23,08,50,0.20
2014,02,23,08,51,0.10
2014,02,23,08,52,0.10
2014,02,23,08,53,0.10
2014,02,23,08,54,0.10
2014,02,23,08,55,0.10
2014,02,23,08,56,0.10
2014,02,23,08,57,0.10
2014,02,23,08,58,0.10
2014,02,23,08,59,0.10
2014,02,23,09,00,0.10
2014,02,23,09,01,0.10
2014,02,23,09,02,0.10
2014,02,23,09,03,0.10
2014,02,23,09,04,0.10
2014,02,23,09,05,0.10
2014,02,23,09,06,0.10
2014,02,23,09,07,0.10
2014,02,23,09,08,0.10
2014,02,23,09,09,0.10
2014,02,23,09,10,0.10
2014,02,23,09,11,0.10
2014,02,23,09,12,0.10
2014,02,23,09,13,0.10
2014,02,23,09,14,0.10
2014,02,23,09,15,0.10
2014,02,23,09,16,0.10
2014,02,23,09,17,0.10
2014,02,23,09,18,0.10
2014,02,23,09,19,0.10
2014,02,23,09,20,0.10
2014,02,23,09,21,0.10
2014,02,23,09,22,0.10
2014,02,23,09,23,0.10
2014,02,23,09,24,0.10
2014,02,23,09,25,0.10
2014,02,23,09,26,0.10
2014,02,23,09,27,0.10
2014,02,23,09,28,0.10
2014,02,23,09,29,0.10
2014,02,23,09,30,0.10
2014,02,23,09,31,0.10
2014,02,23,09,32,0.10
2014,02,23,09,33,0.10
2014,02,23,09,34,0.10
2014,02,23,09,35,0.10
2014,02,23,09,36,0.10
2014,02,23,09,37,0.10
2014,02,23,09,38,0.10
2014,02,23,09,39,0.10
2014,02,23,09,40,0.10
2014,02,23,09,41,0.10
2014,02,23,09,42,0.10
2014,02,23,09,43,0.10
2014,02,23,09,44,0.10
2014,02,23,09,45,0.10
2014,02,23,09,46,0.10
2014,02,23,09,47,0.10
2014,02,23,09,48,0.10
2014,02,23,09,49,0.10
2014,02,23,09,50,0.10
2014,02,23,09,51,0.10
2014,02,23,09,52,0.10
2014,02,23,09,53,0.10
2014,02,23,09,54,0.10
2014,02,23,09,55,0.00
2014,02,23,09,56,0.00
2014,02,23,09,57,0.00
2014,02,23,09,58,0.00
2014,02,23,09,59,0.00
2014,02,23,10,00,0.00
2014,02,23,10,01,0.00
2014,02,23,10,02,0.10
2014,02,23,10,03,0.10
2014,02,23,10,04,0.10
2014,02,23,10,05,0.10
2014,02,23,10,06,0.10
2014,02,23,10,07,0.10
2014,02,23,10,08,0.10
2014,02,23,10,09,0.10
2014,02,23,10,10,0.10
2014,02,23,10,11,0.10
2014,02,23,10,12,0.10
2014,02,23,10,13,0.10
2014,02,23,10,14,0.10
2014,02,23,10,15,0.10
2014,02,23,10,16,0.10
2014,02,23,10,17,0.10
2014,02,23,10,18,0.10
2014,02,23,10,19,0.10
2014,02,23,10,20,0.10
2014,02,23,10,21,0.10
2014,02,23,10,22,0.10
2014,02,23,10,23,0.00
2014,02,23,10,24,0.00
2014,02,23,10,25,0.00
2014,02,23,10,26,0.00
2014,02,23,10,27,0.00
2014,02,23,10,28,0.10
2014,02,23,10,29,0.00
2014,02,23,15,38,0.20
2014,02,23,15,39,0.20
2014,02,23,15,40,0.20
2014,02,23,15,41,0.20
2014,02,23,15,42,0.20
2014,02,23,15,43,0.20
2014,02,23,15,44,0.20
2014,02,23,15,45,0.20
2014,02,23,15,46,0.20
2014,02,23,15,47,0.20
2014,02,23,15,48,0.20
2014,02,23,15,49,0.20
2014,02,23,15,50,0.20
2014,02,23,15,51,0.20
2014,02,23,15,52,0.20
2014,02,23,15,53,0.20
2014,02,23,15,54,0.20
2014,02,23,15,55,0.20
2014,02,23,15,56,0.20
2014,02,23,15,57,0.20
2014,02,23,15,58,0.20
2014,02,23,15,59,0.20
2014,02,23,16,00,0.20
2014,02,23,16,01,0.20
2014,02,23,16,02,0.20
2014,02,23,16,03,0.30
2014,02,23,16,04,0.30
2014,02,23,16,05,0.30
2014,02,23,16,06,0.20
2014,02,23,16,07,0.20
2014,02,23,16,08,0.20
2014,02,23,16,09,0.20
2014,02,23,16,10,0.20
2014,02,23,16,11,0.20
2014,02,23,16,12,0.20
2014,02,23,16,13,0.20
2014,02,23,16,14,0.20
2014,02,23,16,15,0.20
2014,02,23,16,16,0.20
2014,02,23,16,17,0.20
2014,02,23,16,18,0.20
2014,02,23,16,19,0.20
2014,02,23,16,20,0.20
2014,02,23,16,21,0.20
2014,02,23,16,22,0.20
2014,02,23,16,23,0.20
2014,02,23,16,24,0.20
2014,02,23,16,25,0.20
2014,02,23,16,26,0.20
2014,02,23,16,27,0.20
2014,02,23,16,28,0.20
2014,02,23,16,29,0.20
2014,02,23,16,30,0.20
2014,02,23,16,31,0.20
2014,02,23,16,32,0.20
2014,02,23,16,33,0.20
2014,02,23,16,34,0.20
2014,02,23,16,35,0.20
2014,02,23,16,36,0.20
2014,02,23,16,37,0.20
2014,02,23,16,38,0.20
2014,02,23,16,39,0.20
2014,02,23,16,40,0.20
2014,02,23,16,41,0.20
2014,02,23,16,42,0.20
2014,02,23,16,43,0.20
2014,02,23,16,44,0.20
2014,02,23,16,45,0.20
2014,02,23,16,46,0.20
2014,02,23,16,47,0.20
2014,02,23,16,48,0.20
2014,02,23,16,49,0.20
2014,02,23,16,50,0.20
2014,02,23,16,51,0.20
2014,02,23,16,52,0.20
2014,02,23,16,53,0.20
2014,02,23,16,54,0.20
2014,02,23,16,55,0.20
2014,02,23,16,56,0.20
2014,02,23,16,57,0.10
2014,02,23,16,58,0.10
2014,02,23,16,59,0.10
2014,02,23,17,00,0.10
2014,02,23,17,01,0.10
2014,02,23,17,02,0.10
2014,02,23,17,03,0.10
2014,02,23,17,04,0.10
2014,02,23,17,05,0.10
2014,02,23,17,06,0.10
2014,02,23,17,07,0.10
2014,02,23,17,08,0.10
2014,02,23,17,09,0.10
2014,02,23,17,10,0.10
2014,02,23,17,11,0.10
2014,02,23,17,12,0.10
2014,02,23,17,13,0.10
2014,02,23,17,14,0.10
2014,02,23,17,15,0.10
2014,02,23,17,16,0.10
2014,02,23,17,17,0.10
2014,02,23,17,18,0.10
2014,02,23,17,19,0.10
2014,02,23,17,20,0.10
2014,02,23,17,21,0.10
2014,02,23,17,22,0.10
2014,02,23,17,23,0.10
2014,02,23,17,24,0.10
2014,02,23,17,25,0.10
2014,02,23,17,26,0.10
2014,02,23,17,27,0.10
2014,02,23,17,28,0.10
2014,02,23,17,29,0.10
2014,02,23,17,30,0.10
2014,02,23,17,31,0.10
2014,02,23,17,32,0.10
2014,02,23,17,33,0.10
2014,02,23,17,34,0.10
2014,02,23,17,35,0.10
2014,02,23,17,36,0.10
2014,02,23,17,37,0.10
2014,02,23,17,38,0.10
2014,02,23,17,39,0.10
2014,02,23,17,40,0.10
2014,02,23,17,41,0.10
2014,02,23,17,42,0.10
2014,02,23,17,43,0.10
2014,02,23,17,44,0.10
2014,02,23,17,45,0.10
2014,02,23,17,46,0.10
2014,02,23,17,47,0.10
2014,02,23,17,48,0.10
2014,02,23,17,49,0.10
2014,02,23,17,50,0.10
2014,02,23,17,51,0.10
2014,02,23,17,52,0.10
2014,02,23,17,53,0.20
2014,02,23,17,54,0.20
2014,02,23,17,55,0.20
2014,02,23,17,56,0.20
2014,02,23,17,57,0.20
2014,02,23,17,58,0.10
2014,02,23,17,59,0.10
2014,02,23,18,00,0.10
2014,02,23,18,01,0.10
2014,02,23,18,02,0.10
2014,02,23,18,03,0.10
2014,02,23,18,04,0.10
2014,02,23,18,05,0.10
2014,02,23,18,06,0.20
2014,02,23,18,07,0.20
2014,02,23,18,08,0.20
2014,02,23,18,09,0.20
2014,02,23,18,10,0.20
2014,02,23,18,11,0.20
2014,02,23,18,12,0.20
2014,02,23,18,13,0.20
2014,02,23,18,14,0.20
2014,02,23,18,15,0.20
2014,02,23,18,16,0.20
2014,02,23,18,17,0.20
2014,02,23,18,18,0.20
2014,02,23,18,19,0.20
2014,02,23,18,20,0.20
2014,02,23,18,21,0.20
2014,02,23,18,22,0.20
2014,02,23,18,23,0.20
2014,02,23,18,24,0.20
2014,02,23,18,25,0.20
2014,02,23,18,26,0.20
2014,02,23,18,27,0.20
2014,02,23,18,28,0.20
2014,02,23,18,29,0.20
2014,02,23,18,30,0.20
2014,02,23,18,31,0.20
2014,02,23,18,32,0.20
2014,02,23,18,33,0.20
2014,02,23,18,34,0.20
2014,02,23,18,35,0.20
2014,02,23,18,36,0.20
2014,02,23,18,37,0.20
2014,02,23,18,38,0.20
2014,02,23,18,39,0.20
2014,02,23,18,40,0.20
2014,02,23,18,41,0.20
2014,02,23,18,42,0.20
2014,02,23,18,43,0.20
2014,02,23,18,44,0.20
2014,02,23,18,45,0.20
2014,02,23,18,46,0.20
2014,02,23,18,47,0.20
2014,02,23,18,48,0.20
2014,02,23,18,49,0.20
2014,02,23,18,50,0.20
2014,02,23,18,51,0.20
2014,02,23,18,52,0.20
2014,02,23,18,53,0.20
2014,02,23,18,54,0.20
2014,02,23,18,55,0.20
2014,02,23,18,56,0.20
2014,02,23,18,57,0.20
2014,02,23,18,58,0.20
2014,02,23,18,59,0.20
2014,02,23,19,00,0.20
2014,02,23,19,01,0.20
2014,02,23,19,02,0.20
2014,02,23,19,03,0.20
2014,02,23,19,04,0.20
2014,02,23,19,05,0.20
2014,02,23,19,06,0.20
2014,02,23,19,07,0.20
2014,02,23,19,08,0.20
2014,02,23,19,09,0.20
2014,02,23,19,10,0.20
2014,02,23,19,11,0.20
2014,02,23,19,12,0.20
2014,02,23,19,13,0.20
2014,02,23,19,14,0.20
2014,02,23,19,15,0.20
2014,02,23,19,16,0.20
2014,02,23,19,17,0.20
2014,02,23,19,18,0.10
2014,02,23,19,19,0.10
2014,02,23,19,20,0.10
2014,02,23,19,21,0.10
2014,02,23,19,22,0.10
2014,02,23,19,23,0.10
2014,02,23,19,24,0.10
2014,02,23,19,25,0.10
2014,02,23,19,26,0.10
2014,02,23,19,27,0.10
2014,02,23,19,28,0.10
2014,02,23,19,29,0.10
2014,02,23,19,30,0.10
2014,02,23,19,31,0.10
2014,02,23,19,32,0.10
2014,02,23,19,33,0.10
2014,02,23,19,34,0.10
2014,02,23,19,35,0.10
2014,02,23,19,36,0.10
2014,02,23,19,37,0.10
2014,02,23,19,38,0.10
2014,02,23,19,39,0.10
2014,02,23,19,40,0.10
2014,02,23,19,41,0.10
2014,02,23,19,42,0.10
2014,02,23,19,43,0.10
2014,02,23,19,44,0.10
2014,02,23,19,45,0.10
2014,02,23,19,46,0.10
2014,02,23,19,47,0.10
2014,02,23,19,48,0.10
2014,02,23,19,49,0.10
2014,02,23,19,50,0.10
2014,02,23,19,51,0.10
2014,02,23,19,52,0.10
2014,02,23,19,53,0.10
2014,02,23,19,54,0.10
2014,02,23,19,55,0.10
2014,02,23,19,56,0.10
2014,02,23,19,57,0.10
2014,02,23,19,58,0.10
2014,02,23,19,59,0.10
2014,02,23,20,00,0.10
2014,02,23,20,01,0.10
2014,02,23,20,02,0.10
2014,02,23,20,03,0.10
2014,02,23,20,04,0.10
2014,02,23,20,05,0.10
2014,02,23,20,06,0.10
2014,02,23,20,07,0.10
2014,02,23,20,08,0.10
2014,02,23,20,09,0.10
2014,02,23,20,10,0.10
2014,02,23,20,11,0.10
2014,02,23,20,12,0.10
2014,02,23,20,13,0.10
2014,02,23,20,14,0.10
2014,02,23,20,15,0.10
2014,02,23,20,16,0.10
2014,02,23,20,17,0.10
2014,02,23,20,18,0.10
2014,02,23,20,19,0.10
2014,02,23,20,20,0.10
2014,02,23,20,21,0.10
2014,02,23,20,22,0.10
2014,02,23,20,23,0.10
2014,02,23,20,24,0.10
2014,02,23,20,25,0.10
2014,02,23,20,26,0.10
2014,02,23,20,27,0.10
2014,02,23,20,28,0.10
2014,02,23,20,29,0.10
2014,02,23,20,30,0.10
2014,02,23,20,31,0.10
2014,02,23,20,32,0.10
2014,02,23,20,33,0.10
2014,02,23,20,34,0.10
2014,02,23,20,35,0.10
2014,02,23,20,36,0.10
2014,02,23,20,37,0.10
2014,02,23,20,38,0.10
2014,02,23,20,39,0.10
2014,02,23,20,40,0.10
2014,02,23,20,41,0.10
2014,02,23,20,42,0.10
2014,02,23,20,43,0.10
2014,02,23,20,44,0.10
2014,02,23,20,45,0.10
2014,02,23,20,46,0.10
2014,02,23,20,47,0.10
2014,02,23,20,48,0.20
2014,02,23,20,49,0.20
2014,02,23,20,50,0.20
2014,02,23,20,51,0.20
2014,02,23,20,52,0.20
2014,02,23,20,53,0.20
2014,02,23,20,54,0.20
2014,02,23,20,55,0.20
2014,02,23,20,56,0.20
2014,02,23,20,57,0.20
2014,02,23,20,58,0.10
2014,02,23,20,59,0.10
2014,02,23,21,00,0.10
2014,02,23,21,01,0.10
2014,02,23,21,02,0.10
2014,02,23,21,03,0.10
2014,02,23,21,04,0.10
2014,02,23,21,05,0.10
2014,02,23,21,06,0.10
2014,02,23,21,07,0.10
2014,02,23,21,08,0.10
2014,02,23,21,09,0.10
2014,02,23,21,10,0.10
2014,02,23,21,11,0.10
2014,02,23,21,12,0.10
2014,02,23,21,13,0.10
2014,02,23,21,14,0.10
2014,02,23,21,15,0.10
2014,02,23,21,16,0.10
2014,02,23,21,17,0.10
2014,02,23,21,18,0.10
2014,02,23,21,19,0.10
2014,02,23,21,20,0.10
2014,02,23,21,21,0.10
2014,02,23,21,22,0.10
2014,02,23,21,23,0.10
2014,02,23,21,24,0.00
2014,02,23,21,25,0.00
2014,02,23,21,26,0.00
2014,02,23,21,27,0.00
2014,02,23,21,28,0.00
2014,02,23,21,29,0.00
2014,02,23,21,30,0.00
2014,02,23,21,31,0.00
2014,02,23,21,32,0.00
2014,02,23,21,33,0.00
2014,02,23,21,34,0.00
2014,02,23,21,35,0.00
2014,02,23,21,36,0.00
2014,02,23,21,37,0.00
2014,02,23,21,38,0.00
2014,02,23,21,39,0.00
2014,02,23,21,40,0.00
2014,02,23,21,41,0.00
2014,02,23,21,42,0.00
2014,02,23,21,43,0.00
2014,02,23,21,44,0.00
2014,02,23,21,45,0.00
2014,02,23,21,46,0.00
2014,02,23,21,47,0.00
2014,02,23,21,48,0.00
2014,02,23,21,49,0.00
2014,02,23,21,50,0.00
2014,02,23,21,51,0.00
2014,02,23,21,52,0.00
2014,02,23,21,53,0.00
2014,02,23,21,54,0.00
2014,02,23,21,55,0.00
2014,02,23,21,56,0.00
2014,02,23,21,57,0.00
2014,02,23,21,58,0.00
2014,02,23,21,59,0.00
2014,02,23,22,00,0.00
2014,02,23,22,01,0.00
2014,02,23,22,02,0.00
2014,02,23,22,03,0.00
2014,02,23,22,04,0.00
2014,02,23,22,05,0.00
2014,02,23,22,06,0.00
2014,02,23,22,07,0.00
2014,02,23,22,08,0.00
2014,02,23,22,09,0.00
2014,02,23,22,10,0.00
2014,02,23,22,11,0.00
2014,02,23,22,12,0.00
2014,02,23,22,13,0.00
2014,02,23,22,14,0.00
2014,02,23,22,15,0.00
2014,02,23,22,16,0.00
2014,02,23,22,17,0.00
2014,02,23,22,18,0.00
2014,02,23,22,19,0.00
2014,02,23,22,20,0.00
2014,02,23,22,21,0.00
2014,02,23,22,22,0.00
2014,02,23,22,23,0.00
2014,02,23,22,24,0.00
2014,02,23,22,25,0.00
2014,02,23,22,26,0.00
2014,02,23,22,27,0.00
2014,02,23,22,28,0.00
2014,02,23,22,29,0.00
2014,02,23,22,30,0.00
2014,02,23,22,31,0.00
2014,02,23,22,32,0.00
2014,02,23,22,33,0.00
2014,02,23,22,34,0.00
2014,02,23,22,35,0.00
2014,02,23,22,36,0.00
2014,02,23,22,37,0.00
2014,02,23,22,38,0.00
2014,02,23,22,39,0.00
2014,02,23,22,40,0.00
2014,02,23,22,41,0.00
2014,02,23,22,42,0.00
2014,02,23,22,43,0.00
2014,02,23,22,44,0.00
2014,02,23,22,45,0.00
2014,02,23,22,46,0.00
2014,02,23,22,47,0.00
2014,02,23,22,48,0.00
2014,02,23,22,49,0.00
2014,02,23,22,50,0.00
2014,02,23,22,51,0.00
2014,02,23,22,52,0.00
2014,02,23,22,53,0.00
2014,02,23,22,54,0.00
2014,02,23,22,55,0.00
2014,02,23,22,56,0.00
2014,02,23,22,57,0.00
2014,02,23,22,58,0.00
2014,02,23,22,59,0.00
2014,02,23,23,00,0.00
2014,02,23,23,01,0.00
2014,02,23,23,02,0.00
2014,02,23,23,03,0.00
2014,02,23,23,04,0.00
2014,02,23,23,05,0.00
2014,02,23,23,06,0.00
2014,02,23,23,07,0.00
2014,02,23,23,08,0.00
2014,02,23,23,09,0.00
2014,02,23,23,10,0.00
2014,02,23,23,11,0.00
2014,02,23,23,12,0.00
2014,02,23,23,13,0.00
2014,02,23,23,14,0.00